This is the latest recevied weather packets stored in our database for station/object KQ4KX. If no packets are shown the sender has not sent any weather packets the latest 10 day(s).
| Time | Temp. | Humidity | Pressure | Rain* | Wind** | Luminosity | Snow |
|---|---|---|---|---|---|---|---|
| 1777998034 | 28.89° C | 59% | 1016.6 hPa | 0 mm | - | - | - |
| 1777996773 | 28.89° C | 56% | 1016.6 hPa | 0 mm | - | - | - |
| 1777996473 | 28.89° C | 57% | 1016.7 hPa | 0 mm | - | - | - |
| 1777996143 | 29.44° C | 59% | 1016.7 hPa | 0 mm | - | - | - |
| 1777995843 | 30° C | 58% | 1016.7 hPa | 0 mm | - | - | - |
| 1777995243 | 29.44° C | 60% | 1016.7 hPa | 0 mm | - | - | - |
| 1777994283 | 28.33° C | 61% | 1016.6 hPa | 0 mm | - | - | - |
| 1777993983 | 27.78° C | 64% | 1016.7 hPa | 0 mm | - | - | - |
| 1777993683 | 27.78° C | 67% | 1016.7 hPa | 0 mm | - | - | - |
| 1777993353 | 27.22° C | 65% | 1016.6 hPa | 0 mm | - | - | - |
| 1777993053 | 27.22° C | 65% | 1016.7 hPa | 0 mm | - | - | - |
| 1777992724 | 26.67° C | 65% | 1016.7 hPa | 0 mm | - | - | - |
| 1777992394 | 26.67° C | 69% | 1016.8 hPa | 0 mm | - | - | - |
| 1777991463 | 26.67° C | 69% | 1016.5 hPa | 0 mm | - | - | - |
| 1777991133 | 26.67° C | 71% | 1016.5 hPa | 0 mm | - | - | - |
| 1777990833 | 26.67° C | 72% | 1016.4 hPa | 0 mm | - | - | - |
| 1777989843 | 25.56° C | 75% | 1016.1 hPa | 0 mm | - | - | - |
| 1777989213 | 25° C | 75% | 1016.3 hPa | 0 mm | - | - | - |
| 1777988883 | 25° C | 76% | 1016.3 hPa | 0 mm | - | - | - |
| 1777988553 | 25° C | 77% | 1016.3 hPa | 0 mm | - | - | - |
| 1777988253 | 24.44° C | 78% | 1016.4 hPa | 0 mm | - | - | - |
| 1777987953 | 24.44° C | 78% | 1016.3 hPa | 0 mm | - | - | - |
| 1777987653 | 24.44° C | 78% | 1016.2 hPa | 0 mm | - | - | - |
| 1777987353 | 24.44° C | 79% | 1016.2 hPa | 0 mm | - | - | - |
| 1777987023 | 24.44° C | 79% | 1016.2 hPa | 0 mm | - | - | - |
* Rain latest hour (hover to see other rain measurements)
** Current wind speed in m/s (hover to see current wind gust speed)